Home   Weather   St. Peter Port   Past weeks

Flag for Guernsey Past Weather in St. Peter Port, Guernsey — Yesterday and Last 2 Weeks

Now
54 °F

Scattered clouds.


Feels Like: 50 °F
Forecast: 54 / 57 °F
Wind: 13 mph from South

Location: Guernsey Airport

Current Time: Dec 8, 2016 at 9:58:45 am

Latest Report: Dec 8, 2016 at 9:20 am


Visibility: N/A

Pressure: 30.33 "Hg

Humidity: 82%

Dew Point: 48 °F

Location of St. Peter PortLocation

Past Weather in St. Peter Port — Graph

°F

St. Peter Port Temperature Yesterday

Maximum temperature yesterday: 54 °F (at 9:50 am)
Minimum temperature yesterday: 52 °F (at 3:50 am)
Average temperature yesterday: 53 °F

High & Low Weather Summary for the Past Weeks

 TemperatureHumidityPressure
High54 °F (Nov 23, 7:50 pm)100% (Dec 1, 6:20 am)30.57 "Hg (Dec 1, 6:20 am)
Low34 °F (Nov 30, 4:20 am)37% (Nov 28, 1:20 pm)29.89 "Hg (Nov 23, 5:20 pm)
Average48 °F81%30.20 "Hg
* Reported Nov 23 8:20 am — Dec 8 8:20 am, St. Peter Port, Weather by CustomWeather, © 2016

Note: Actual official high and low records may vary slightly from our data, if they occured in-between our weather recording intervals... More about our weather records

Advertising

St. Peter Port Weather History for the Previous 24 Hours

Scroll right to see more
 ConditionsComfort  
Time TempWeatherWind HumidityBarometerVisibility
8:20 am
Thu, Dec 8
52 °FSunny.15 mph94%30.33 "Hg10 mi
7:50 am52 °FClear.13 mph88%30.33 "Hg10 mi
7:20 am52 °FClear.13 mph88%30.33 "Hg10 mi
6:50 am52 °FClear.12 mph94%30.33 "Hg10 mi
6:20 am52 °FClear.14 mph88%30.30 "Hg10 mi
5:50 am52 °FClear.16 mph88%30.30 "Hg10 mi
5:20 am52 °FClear.14 mph88%30.30 "Hg10 mi
4:50 am52 °FClear.14 mph88%30.30 "Hg10 mi
4:20 am52 °FClear.14 mph88%30.33 "Hg10 mi
3:50 am52 °FClear.13 mph88%30.33 "Hg10 mi
8:50 pm
Wed, Dec 7
54 °FClear.14 mph88%30.36 "Hg10 mi
8:20 pm54 °FClear.13 mph88%30.36 "Hg10 mi
7:50 pm54 °FClear.13 mph88%30.36 "Hg10 mi
7:20 pm54 °FClear.14 mph88%30.33 "Hg10 mi
6:50 pm54 °FClear.12 mph88%30.33 "Hg10 mi
6:20 pm54 °FClear.14 mph82%30.33 "Hg10 mi
5:50 pm54 °FClear.14 mph82%30.33 "Hg10 mi
5:20 pm54 °FClear.14 mph82%30.33 "Hg10 mi
4:50 pm54 °FClear.13 mph82%30.33 "Hg10 mi
4:20 pm54 °FClear.13 mph82%30.33 "Hg10 mi
3:50 pm54 °FSunny.12 mph88%30.33 "Hg10 mi
3:20 pm54 °FSunny.12 mph88%30.33 "Hg10 mi
2:20 pm54 °FSunny.10 mph88%30.33 "Hg10 mi
1:50 pm54 °FPassing clouds.10 mph94%30.33 "HgN/A
1:20 pm54 °FClear.13 mph88%30.33 "Hg6 mi
12:50 pm54 °FPassing clouds.14 mph88%30.33 "Hg6 mi
12:20 pm54 °FPassing clouds.16 mph88%30.33 "Hg6 mi
11:50 am54 °FPassing clouds.14 mph88%30.33 "HgN/A
11:20 am54 °FPassing clouds.16 mph88%30.33 "HgN/A
10:50 am54 °FPassing clouds.14 mph88%30.33 "HgN/A
10:20 am54 °FPassing clouds.12 mph88%30.36 "HgN/A
9:50 am54 °FSunny.12 mph88%30.36 "Hg10 mi
9:20 am52 °FSunny.12 mph94%30.33 "Hg10 mi
Weather by CustomWeather, © 2016

See weather overviewHow to use our weather pages